Temperature
18 18 18 18 17 17 17 17 17 17 17 17 17 17 17 17 17 17 17 17 17 17 17 17 17 16 16 16 16 16 16 16 16 16 16 16 16 16 16 16 16 15 15
18 18 18 18 17 17 17 17 17 17 17 17 17 17 17 17 17 17 17 17 17 17 17 17 17 16 16 16 16 16 16 16 16 16 16 16 16 16 16 16 15 15 15
17 18 17 17 17 17 17 17 17 17 17 17 17 17 17 17 17 17 17 17 17 17 17 16 16 16 16 16 16 16 16 16 16 16 16 16 16 16 16 15 15 15 15
17 17 17 17 17 17 17 17 17 17 17 17 17 17 17 17 17 17 17 17 17 17 16 16 16 16 16 16 16 16 16 16 16 16 16 16 16 15 15 15 15 15 15
17 17 17 17 17 17 17 17 17 17 17 17 17 17 17 17 17 17 17 16 16 16 16 16 16 16 16 16 16 16 16 16 16 16 16 16 16 15 15 15 15 15 15
17 17 17 17 17 17 17 17 17 17 17 17 17 17 17 17 16 16 16 16 16 16 16 16 16 16 16 16 16 16 16 16 16 16 15 15 15 15 15 15 15 15 15
17 17 17 17 17 17 17 17 17 17 16 16 16 16 16 16 16 16 16 16 16 16 16 16 16 16 16 16 16 16 16 16 16 15 15 15 15 15 15 15 15 15 15
17 17 17 17 17 17 17 17 17 16 16 16 16 16 16 16 16 16 16 16 16 16 16 16 16 16 16 16 16 15 15 15 15 15 15 15 15 15 15 15 15 15 15
17 17 17 17 17 17 17 17 17 16 16 16 16 16 16 17 17 17 17 17 16 16 16 16 16 16 16 16 16 16 15 15 15 15 15 15 15 15 15 15 15 15 15
17 17 17 17 17 17 17 16 16 16 16 16 16 16 16 17 17 17 17 17 17 17 17 17 16 16 16 16 16 16 16 15 15 15 15 15 15 15 15 15 15 15 15
17 17 17 17 16 16 16 16 16 16 16 16 16 16 16 17 17 17 17 17 17 17 17 17 17 16 16 16 16 16 16 16 15 15 15 15 15 15 15 15 15 15 15
17 17 17 16 16 16 16 16 16 16 16 16 16 16 16 16 17 17 17 17 17 17 17 17 17 17 17 16 16 16 16 16 15 15 15 15 15 15 15 15 15 14 15
17 17 16 16 16 16 16 16 16 16 16 16 16 16 16 16 17 17 17 17 17 17 17 17 17 17 17 17 16 16 16 16 16 16 15 15 15 15 15 15 14 14 14
17 17 16 16 16 16 16 16 16 16 16 16 16 16 16 16 16 17 17 17 17 17 17 17 17 17 17 17 17 16 16 16 16 16 15 15 15 15 15 14 14 14 14
17 17 16 16 16 16 16 16 15 15 15 15 15 16 16 16 16 16 16 16 17 16 17 17 17 17 17 17 16 16 16 16 16 15 15 15 15 15 14 14 14 14 14
16 16 16 16 16 16 15 15 15 15 15 15 15 15 15 16 16 16 16 16 16 16 16 16 16 16 16 16 16 16 16 16 16 15 15 15 15 15 15 14 14 14 14
16 16 16 16 16 15 15 15 15 15 15 15 15 15 15 15 15 15 15 15 15 15 15 15 15 15 16 16 16 16 16 16 15 15 15 15 15 14 14 14 14 14 14
16 16 16 16 15 15 15 15 15 15 15 15 15 15 15 15 15 15 15 15 15 15 15 15 15 15 15 15 15 15 15 15 15 15 14 14 14 14 14 14 14 14 14
16 15 15 15 15 15 15 15 15 15 15 14 14 14 14 14 14 14 14 14 14 14 14 14 14 14 14 14 14 14 14 14 14 14 13 13 13 13 13 13 13 13 13
15 15 15 15 15 15 15 15 15 14 14 14 14 14 14 14 14 14 14 14 14 14 14 14 14 14 14 14 13 13 13 13 13 13 13 12 12 12 12 12 12 12 12
15 15 15 15 15 15 15 14 14 14 14 14 14 14 14 14 14 14 13 13 13 13 13 13 13 13 13 13 13 12 12 12 12 12 12 11 11 11 11 11 11 11 11
15 15 14 14 14 14 14 14 14 14 14 14 14 13 13 13 13 13 13 13 12 12 12 12 12 12 12 11 11 11 11 11 10 10 10 10 10 10 10 10 10 10 10
14 14 14 14 14 14 14 14 14 14 13 13 13 13 13 12 12 12 12 12 11 11 11 11 11 10 10 10 10 10 9 9 9 9 9 9 9 9 9 9 9 8 8
14 14 14 14 14 13 13 13 13 13 13 12 12 12 12 11 11 11 11 11 10 10 10 10 9 9 9 8 8 8 8 8 8 8 8 8 8 8 8 8 7 7 7
14 13 13 13 13 13 12 12 12 12 12 11 11 10 10 10 10 9 9 9 9 9 8 8 8 7 7 7 7 7 7 7 7 7 6 6 6 6 7 7 6 6 6
13 12 12 12 12 12 11 11 11 11 11 10 10 9 9 9 9 8 8 8 8 7 7 7 6 6 6 6 6 6 6 6 5 5 5 5 4 4 4 5 5 5 5
Wind_Speed
3 3 3 3 3 3 3 2 2 2 2 2 3 4 5 6 6 6 5 8 9 8 9 9 8 9 9 8 9 9 8 8 8 8 8 8 9 8 8 7 7 7 7
5 4 3 3 3 3 3 3 2 2 2 2 2 3 4 5 5 6 5 6 8 8 8 8 8 8 9 8 8 8 9 9 9 8 8 8 8 8 8 7 7 6 6
8 6 4 3 4 4 4 3 3 2 2 2 2 2 3 4 5 5 5 6 6 7 8 9 8 8 9 9 9 8 8 9 9 9 9 9 8 8 8 8 7 7 7
9 7 4 4 5 4 4 3 2 2 1 2 1 1 1 2 4 4 5 5 5 6 7 9 9 9 9 10 10 10 9 9 10 9 9 9 9 9 9 8 8 8 8
10 8 5 4 6 4 3 3 2 2 2 2 2 1 0 1 2 3 4 5 6 6 6 7 8 9 10 10 11 11 10 10 10 10 10 10 10 10 10 10 10 10 10
11 9 6 5 6 4 3 3 3 2 2 2 2 2 1 1 1 2 3 4 6 6 7 7 7 7 9 9 10 11 11 11 11 11 11 11 11 12 12 12 12 12 11
11 9 5 5 5 4 4 5 3 3 2 2 2 2 2 1 1 2 3 3 5 6 7 8 8 7 7 9 10 11 11 11 12 12 12 13 13 13 13 14 14 13 13
11 9 7 6 5 5 5 4 3 3 2 2 2 2 1 2 2 1 2 4 4 4 6 8 8 8 8 7 9 10 11 11 11 12 13 14 14 14 14 14 14 15 15
10 9 9 7 6 5 5 5 5 5 3 1 1 3 3 3 2 2 2 2 3 3 4 6 8 8 9 8 8 10 11 11 12 12 12 13 13 14 14 15 15 15 15
8 9 9 8 6 5 5 5 4 3 4 3 1 1 1 3 2 1 2 1 2 4 4 4 6 7 9 9 10 11 11 11 11 12 12 12 12 12 13 14 14 14 15
6 8 9 7 6 5 5 5 5 4 3 4 3 2 2 1 1 2 1 2 2 2 3 4 5 6 7 9 9 11 12 12 12 11 11 11 10 11 11 12 12 12 12
4 6 7 7 6 5 6 5 5 6 4 3 3 3 3 3 2 2 2 1 2 2 2 2 3 4 6 7 10 11 12 12 11 11 11 10 10 9 9 9 9 10 10
4 6 6 6 5 6 6 6 5 5 5 5 4 2 2 2 2 3 2 1 1 1 2 1 2 3 4 6 8 10 11 11 11 11 10 9 9 8 8 8 9 9 9
6 7 7 7 7 7 7 6 5 4 4 4 4 3 2 2 3 3 3 3 1 1 2 2 2 2 3 3 5 6 6 8 8 8 8 7 7 7 7 8 8 9 9
5 7 7 7 7 7 7 6 4 4 4 4 4 3 2 1 2 2 2 3 4 2 2 2 2 3 4 2 2 1 1 2 2 3 4 5 5 5 6 7 8 9 9
6 8 7 7 7 6 6 6 5 4 5 4 3 3 2 1 1 1 2 2 2 3 2 1 1 3 4 4 5 4 4 6 6 4 3 2 2 2 3 5 6 7 8
7 8 8 7 7 7 7 6 5 6 5 4 3 4 3 2 2 2 2 2 2 2 3 1 1 3 4 5 6 7 7 7 8 9 8 7 6 6 5 5 5 6 6
6 7 7 7 6 6 6 7 7 6 6 5 4 4 3 2 2 1 2 2 1 1 2 2 1 3 4 4 4 6 7 7 8 11 12 11 11 10 9 9 8 8 7
6 6 6 6 6 6 6 6 6 6 5 5 4 4 3 4 3 2 2 2 1 1 1 2 1 2 3 3 3 4 6 6 7 9 10 10 10 10 10 10 10 10 9
6 6 6 6 6 5 5 5 5 5 5 5 4 4 4 4 4 3 3 2 3 3 3 3 2 2 3 3 3 3 3 4 4 6 8 8 9 10 10 10 10 11 10
6 6 6 6 5 4 4 6 6 7 7 8 7 7 7 9 9 7 5 4 4 4 4 3 3 2 3 3 3 3 3 2 2 4 4 4 5 7 9 9 9 11 12
7 7 7 7 6 4 6 9 9 8 8 9 9 8 9 10 13 14 14 12 9 6 4 3 3 3 3 2 2 2 2 2 2 4 3 3 3 4 6 7 8 10 11
8 8 8 8 8 8 11 13 14 10 10 9 8 8 7 8 9 9 13 15 15 15 10 5 5 4 3 3 2 3 3 2 2 3 3 2 2 4 6 7 8 10 12
8 8 8 9 10 10 13 15 16 12 11 10 9 9 9 8 8 9 11 12 12 11 11 9 7 6 6 4 3 2 2 2 1 2 4 3 3 5 7 7 7 10 13
10 9 8 9 11 10 13 14 14 11 11 12 10 10 10 10 11 12 11 11 10 9 14 17 16 15 15 14 10 5 4 4 3 3 4 3 4 5 5 4 6 11 15
10 10 10 9 10 10 12 13 13 10 11 10 9 10 13 13 13 12 10 9 9 7 7 9 11 12 13 14 14 9 5 4 3 3 4 4 4 5 5 3 6 11 12
Wind_Direction
164 164 161 156 149 146 142 136 130 136 140 141 152 156 157 161 162 161 169 175 173 175 173 169 168 167 167 167 166 166 164 164 162 160 160 161 161 161 160 160 160 158 158
175 171 172 174 176 179 177 166 161 148 146 144 150 160 161 160 163 165 172 181 185 187 186 182 179 179 181 180 180 181 179 176 172 170 171 172 173 175 174 175 175 175 176
184 180 178 186 192 186 168 141 122 116 125 135 143 153 158 165 170 178 183 189 195 200 199 197 193 191 193 192 192 192 189 186 184 185 186 188 188 189 189 188 190 191 192
189 180 181 191 184 168 154 136 126 116 117 137 152 163 154 169 181 187 192 200 207 215 216 212 208 205 204 202 202 202 200 198 197 196 198 200 202 203 203 203 204 205 207
191 181 183 185 170 156 154 155 130 137 148 154 164 151 163 201 200 200 210 214 218 225 227 226 224 221 221 219 214 211 208 206 207 207 209 210 212 213 214 216 216 217 219
187 179 179 177 165 151 153 147 134 112 121 137 123 92 33 260 225 223 227 225 224 230 232 233 234 237 237 236 230 223 218 214 215 215 217 219 220 220 221 224 225 226 228
182 175 175 169 165 164 168 155 131 122 107 109 93 55 17 0 255 241 236 233 230 230 231 231 232 236 243 244 241 233 228 223 221 221 224 226 227 227 227 229 231 232 234
182 181 173 172 166 155 152 154 140 129 118 124 128 104 28 346 327 267 236 232 234 228 233 236 234 234 238 242 245 244 239 236 233 229 229 231 232 234 234 234 236 237 238
184 179 177 167 164 163 167 169 158 147 150 139 137 144 150 220 289 316 280 248 237 230 237 239 238 237 238 239 245 249 247 245 243 240 237 237 237 238 239 240 243 243 243
180 177 173 167 166 167 167 171 162 153 148 157 142 111 141 154 159 302 320 299 260 239 239 238 238 239 238 235 239 245 248 249 250 247 242 241 243 243 243 244 245 247 249
177 175 170 166 168 169 170 162 155 158 156 159 162 149 127 96 119 152 267 312 306 261 246 241 242 244 242 237 240 244 247 248 252 251 249 249 250 249 248 249 250 251 253
177 176 172 169 170 167 167 165 161 164 164 156 158 158 158 159 180 171 193 246 281 299 287 258 245 248 247 240 242 246 247 247 250 251 252 255 257 256 257 257 258 259 261
184 185 177 173 171 170 166 158 156 162 165 162 165 170 172 175 162 161 162 177 246 311 323 312 290 275 262 248 250 252 252 250 249 250 251 253 258 263 265 265 265 266 269
188 178 176 177 171 166 164 156 154 162 162 165 169 162 162 176 175 172 164 152 134 345 344 320 328 332 310 278 266 257 257 255 250 250 252 257 264 270 273 275 275 275 275
179 173 171 172 169 164 161 155 156 159 156 160 161 163 165 171 172 177 166 160 154 178 251 311 327 345 347 347 333 308 265 275 264 260 261 263 270 277 280 281 282 282 280
172 167 169 168 164 160 159 155 150 151 149 150 153 152 151 146 138 143 154 153 154 166 199 259 325 349 6 32 41 56 56 57 55 60 56 36 8 341 323 310 303 298 294
166 168 170 166 163 160 158 157 159 157 157 155 156 159 163 148 138 136 129 130 139 153 180 222 4 6 26 37 40 51 54 57 58 60 62 57 50 41 33 19 8 353 337
166 164 160 160 163 164 164 168 170 166 164 166 168 158 162 150 140 142 139 138 151 175 176 184 42 27 34 33 41 47 46 55 61 59 61 58 54 49 44 38 30 19 4
154 150 147 152 158 161 165 169 166 161 160 160 157 155 156 151 148 134 125 124 120 115 123 143 104 42 37 30 38 43 43 36 50 48 56 53 47 45 42 40 33 25 16
145 144 142 147 150 151 151 150 147 140 129 116 111 113 113 123 125 116 99 89 93 88 87 98 86 49 36 23 41 35 29 23 28 33 36 41 42 40 36 32 29 24 20
127 127 124 121 121 128 139 137 130 123 112 100 88 84 86 91 92 91 91 86 92 92 89 84 72 54 36 27 23 8 12 1 26 20 5 19 24 25 21 22 25 24 21
103 105 107 107 98 93 105 113 114 108 103 100 94 83 77 75 80 79 77 74 77 85 91 88 76 65 37 17 7 9 7 8 357 8 352 348 10 8 5 10 14 19 19
103 96 94 94 89 84 93 99 99 100 97 93 90 86 82 75 74 79 74 69 64 63 69 90 85 66 43 14 9 18 17 2 335 343 338 322 344 343 346 349 358 11 12
103 97 93 92 89 84 90 97 99 95 91 84 80 83 86 76 75 82 83 75 67 60 62 69 76 64 53 38 33 25 355 335 312 359 4 327 334 328 328 324 343 5 3
98 92 89 92 93 88 88 96 98 97 91 82 76 74 81 79 75 82 86 82 73 64 66 69 69 64 58 53 47 43 28 16 353 351 9 343 329 324 313 307 332 349 345
103 97 87 84 90 91 89 92 97 101 97 91 78 71 72 78 74 76 82 86 80 64 61 58 54 49 47 44 42 42 32 17 355 335 0 345 332 336 317 306 321 326 325
Height
1555 1557 1559 1560 1562 1563 1565 1566 1567 1568 1570 1571 1572 1572 1573 1574 1575 1575 1576 1577 1578 1579 1581 1582 1583 1584 1585 1586 1588 1589 1590 1591 1592 1593 1594 1595 1596 1596 1597 1598 1598 1599 1600
1556 1558 1559 1561 1562 1564 1565 1567 1568 1569 1570 1571 1572 1573 1573 1574 1575 1576 1577 1578 1579 1580 1581 1582 1583 1584 1585 1586 1588 1589 1590 1591 1592 1593 1594 1595 1596 1597 1597 1598 1599 1599 1600
1556 1558 1560 1561 1563 1564 1565 1567 1568 1569 1570 1571 1572 1573 1574 1575 1576 1576 1577 1578 1579 1580 1581 1582 1583 1584 1585 1586 1587 1588 1589 1590 1592 1593 1594 1594 1595 1596 1597 1598 1598 1599 1600
1555 1558 1559 1561 1563 1564 1565 1567 1568 1569 1570 1571 1572 1573 1574 1575 1575 1576 1577 1578 1579 1580 1581 1582 1583 1584 1585 1586 1587 1588 1589 1590 1591 1592 1593 1594 1595 1596 1596 1597 1598 1599 1599
1555 1557 1559 1561 1562 1564 1565 1567 1568 1569 1570 1571 1572 1572 1573 1574 1575 1576 1577 1578 1578 1579 1581 1582 1582 1583 1584 1585 1586 1587 1588 1589 1590 1591 1592 1592 1594 1595 1595 1596 1597 1598 1598
1554 1556 1558 1560 1561 1563 1564 1565 1567 1568 1570 1571 1571 1572 1573 1574 1574 1575 1576 1577 1578 1579 1580 1581 1582 1582 1583 1584 1585 1585 1586 1587 1588 1589 1590 1591 1592 1593 1594 1595 1595 1596 1597
1553 1555 1557 1559 1560 1562 1563 1565 1566 1567 1569 1570 1571 1572 1572 1573 1574 1574 1575 1576 1577 1578 1579 1580 1581 1581 1582 1583 1583 1584 1585 1585 1586 1587 1588 1589 1590 1591 1592 1593 1593 1594 1595
1551 1553 1555 1557 1559 1560 1562 1563 1565 1566 1567 1569 1570 1571 1572 1573 1573 1573 1574 1575 1576 1577 1578 1578 1579 1580 1581 1582 1582 1583 1583 1584 1585 1586 1587 1588 1588 1589 1590 1590 1591 1592 1592
1550 1552 1554 1556 1557 1559 1560 1562 1564 1565 1566 1568 1569 1571 1571 1571 1572 1572 1573 1573 1574 1575 1576 1577 1578 1579 1580 1580 1581 1582 1582 1583 1583 1584 1585 1585 1586 1586 1587 1587 1588 1589 1589
1547 1549 1552 1554 1555 1557 1559 1561 1562 1563 1565 1566 1568 1569 1570 1570 1571 1571 1572 1572 1573 1574 1575 1576 1577 1577 1578 1579 1580 1580 1581 1581 1582 1582 1583 1583 1583 1584 1584 1585 1585 1585 1586
1544 1547 1549 1552 1553 1555 1557 1559 1560 1562 1563 1565 1566 1567 1568 1569 1570 1571 1571 1572 1572 1573 1574 1575 1575 1576 1577 1577 1578 1579 1579 1580 1580 1581 1581 1581 1581 1581 1581 1582 1582 1582 1583
1541 1544 1546 1549 1551 1553 1555 1557 1558 1560 1561 1563 1565 1566 1567 1568 1569 1570 1570 1571 1571 1572 1573 1573 1574 1575 1575 1576 1576 1577 1577 1578 1578 1579 1579 1579 1579 1579 1579 1579 1579 1579 1580
1538 1540 1543 1546 1548 1551 1553 1555 1556 1558 1560 1561 1563 1564 1565 1566 1567 1568 1569 1569 1570 1571 1572 1572 1573 1573 1573 1574 1574 1575 1575 1576 1576 1577 1577 1577 1577 1577 1577 1576 1576 1576 1576
1535 1538 1541 1543 1546 1548 1550 1552 1554 1556 1558 1559 1561 1562 1564 1565 1566 1567 1568 1568 1569 1570 1570 1571 1571 1571 1571 1572 1572 1572 1573 1574 1574 1574 1574 1574 1574 1574 1574 1574 1573 1573 1573
1532 1535 1538 1541 1543 1546 1548 1550 1551 1553 1555 1557 1559 1560 1562 1563 1564 1565 1566 1567 1568 1568 1568 1569 1569 1569 1569 1569 1570 1570 1570 1571 1571 1571 1571 1571 1571 1571 1570 1570 1570 1570 1569
1529 1532 1535 1538 1541 1543 1545 1548 1549 1551 1553 1555 1556 1558 1559 1561 1562 1563 1564 1564 1565 1566 1566 1566 1567 1567 1567 1567 1567 1567 1567 1568 1568 1568 1568 1568 1567 1567 1567 1566 1566 1565 1565
1526 1530 1533 1536 1539 1541 1543 1545 1547 1549 1550 1552 1554 1556 1557 1559 1560 1561 1561 1562 1563 1564 1564 1564 1564 1565 1565 1565 1565 1565 1564 1564 1564 1564 1564 1564 1563 1563 1562 1562 1561 1560 1560
1525 1528 1531 1534 1536 1539 1541 1543 1545 1547 1548 1550 1552 1553 1555 1556 1557 1558 1559 1559 1560 1560 1561 1561 1561 1562 1562 1562 1562 1561 1561 1561 1561 1560 1560 1559 1559 1558 1557 1556 1556 1555 1554
1523 1526 1528 1531 1534 1537 1539 1541 1543 1545 1547 1548 1550 1551 1552 1554 1554 1555 1556 1556 1557 1558 1558 1558 1558 1558 1558 1558 1558 1558 1557 1557 1557 1556 1555 1555 1554 1553 1552 1551 1550 1549 1548
1521 1524 1527 1529 1532 1535 1537 1539 1541 1543 1544 1546 1547 1549 1550 1551 1552 1552 1553 1553 1554 1554 1555 1555 1555 1555 1555 1554 1554 1554 1553 1553 1552 1552 1551 1550 1549 1548 1547 1546 1544 1543 1542
1520 1522 1525 1528 1530 1533 1535 1537 1539 1541 1542 1544 1545 1546 1547 1548 1549 1549 1550 1551 1551 1551 1552 1551 1552 1551 1551 1551 1550 1550 1549 1548 1548 1547 1546 1545 1545 1543 1542 1540 1539 1537 1536
1520 1522 1524 1526 1529 1531 1533 1535 1537 1539 1540 1542 1543 1545 1546 1546 1547 1547 1548 1548 1549 1549 1548 1549 1548 1548 1548 1547 1547 1546 1545 1544 1543 1543 1542 1541 1540 1538 1537 1535 1534 1532 1530
1519 1521 1523 1525 1527 1530 1532 1533 1535 1537 1539 1540 1542 1543 1544 1545 1545 1546 1546 1546 1546 1546 1546 1546 1546 1545 1545 1544 1544 1543 1542 1541 1539 1538 1537 1536 1535 1533 1532 1530 1528 1526 1524
1518 1520 1522 1525 1526 1528 1530 1532 1534 1536 1537 1539 1541 1542 1542 1543 1544 1545 1545 1545 1544 1544 1544 1544 1544 1543 1542 1542 1541 1540 1539 1538 1537 1535 1533 1531 1529 1528 1526 1525 1523 1520 1518
1517 1519 1522 1524 1525 1527 1530 1531 1533 1535 1536 1538 1540 1541 1542 1542 1543 1544 1544 1544 1544 1544 1544 1543 1542 1542 1541 1540 1539 1538 1537 1535 1533 1532 1529 1527 1524 1522 1520 1519 1517 1515 1512
1516 1518 1521 1523 1525 1527 1529 1531 1533 1534 1535 1537 1539 1540 1541 1542 1543 1543 1544 1544 1543 1543 1543 1543 1542 1541 1540 1539 1537 1536 1534 1532 1530 1528 1526 1524 1521 1518 1515 1513 1512 1509 1506